Вернуться в каталог

ONEWEB-0204

АктивенСвязьPO
NORAD 48225·PAYLOAD·🇬🇧 United Kingdom

Запущен Apr 25, 2021 с Vostochny Cosmodrome

Loading…

Ближайшие Пролёты (ближайшие 24 часа)

TLE

СвежийSource: CelesTrak SupGP

Эпоха: Sep 14, 2026, 16:29 UTC

1 48225C 21031R   26257.68730738 -.00002521  00000+0 -68096-2 0  2571
2 48225  87.8893 271.8558 0002118 101.7517 310.4005 13.14502547    12

Отслеживайте ONEWEB-0204 в реальном времени с AllMySat

Download on the App Store